Location: Newark
(45.2862°N, 9.8850°E)
Time: 11:03:10
(UTC+00:00)

N. Korean satellite - Pass Details

Date: 15 December 2019
Orbit: 454 x 508 km, 97.2° (Epoch: 17 January)

Event Time Altitude Azimuth Distance (km) Brightness Sun altitude
Rises 05:59:57 0° 0° (N) 2,531 10.0 -8.9°
Reaches altitude 10° 06:02:15 10° 348° (NNW) 1,639 8.9 -8.6°
Maximum altitude 06:05:11 25° 291° (WNW) 974 7.5 -8.1°
Drops below altitude 10° 06:08:04 10° 234° (SW) 1,606 8.9 -7.7°
Sets 06:10:18 0° 221° (SW) 2,469 10.0 -7.3°
